Change the Weather History Date:

Sunday, March 10, 2013

  Actual Average Record
Temperature  
Mean Temperature 59 °F -  
Max Temperature 66 °F 56 °F 77 °F (2009)
Min Temperature 52 °F 35 °F 12 °F (1932)
Degree Days  
Heating Degree Days 6    
Growing Degree Days 9 (Base 50)    
Moisture  
Dew Point 44 °F    
Average Humidity 64    
Maximum Humidity 100    
Minimum Humidity 34    
Precipitation  
Precipitation 0.46 in - - ()
Sea Level Pressure  
Sea Level Pressure 29.85 in    
Wind  
Wind Speed 14 mph (South)    
Max Wind Speed 25 mph    
Max Gust Speed 33 mph    
Visibility 7 miles    
Events Rain    
Averages and records for this station are not official NWS values.
T = Trace of Precipitation, MM = Missing Value Source: NWS Daily Summary

Daily Weather History Graph

Daily Weather History Graph

Search for Another Location

Airport or City:

Trip Planner

Search our weather history database for the weather conditions in past years. The results will help you decide how hot, cold, wet, or windy it might be!

Date:

Astronomy

Mar. 10, 2013 Rise Set
Actual Time 7:06 AM CDT 6:51 PM CDT
Civil Twilight 6:40 AM CDT 7:17 PM CDT
Nautical Twilight 6:10 AM CDT 7:47 PM CDT
Astronomical Twilight 5:39 AM CDT 8:18 PM CDT
Moon 6:05 AM CDT (3/10) 5:58 PM CDT (3/10)
Length of Visible Light 12h 36m
Length of Day
11h 44m
Waning Crescent, 2% of the Moon is Illuminated
Mar 10
Waning Crescent
Mar 11
New
Mar 19
First Quarter
Mar 27
Full
Apr 2
Last Quarter

Hourly Weather History & Observations

Time (CDT) Temp. Dew Point Humidity Pressure Visibility Wind Dir Wind Speed Gust Speed Precip Events Conditions
12:56 AM 54.0 °F 36.9 °F 52% 29.98 in 10.0 mi SSE 10.4 mph - N/A   Clear
1:56 AM 52.0 °F 36.9 °F 56% 29.96 in 10.0 mi SSE 10.4 mph - N/A   Clear
3:56 AM 52.9 °F 36.9 °F 55% 29.95 in 10.0 mi South 12.7 mph - N/A   Clear
4:56 AM 54.0 °F 36.9 °F 52% 29.95 in 10.0 mi SSE 15.0 mph - N/A   Clear
5:56 AM 54.9 °F 36.9 °F 51% 29.96 in 10.0 mi South 12.7 mph - N/A   Clear
7:56 AM 54.9 °F 37.9 °F 53% 29.95 in 10.0 mi SSE 13.8 mph - N/A   Clear
8:56 AM 57.9 °F 38.8 °F 49% 29.97 in 10.0 mi South 15.0 mph - N/A   Clear
9:56 AM 59.9 °F 37.9 °F 44% 29.94 in 10.0 mi South 17.3 mph 24.2 mph N/A   Clear
10:56 AM 61.9 °F 38.8 °F 43% 29.94 in 10.0 mi South 17.3 mph 28.8 mph N/A   Clear
11:56 AM 63.9 °F 38.8 °F 40% 29.93 in 8.0 mi South 19.6 mph 26.5 mph N/A   Clear
12:56 PM 65.8 °F 38.8 °F 37% 29.87 in 8.0 mi South 18.4 mph 29.9 mph N/A   Clear
1:56 PM 66.9 °F 41.0 °F 39% 29.87 in 8.0 mi South 25.3 mph 33.4 mph N/A   Scattered Clouds
2:56 PM 66.9 °F 38.8 °F 36% 29.83 in 10.0 mi South 20.7 mph - N/A   Clear
3:56 PM 66.9 °F 37.9 °F 34% 29.80 in 10.0 mi SSE 20.7 mph 25.3 mph N/A   Clear
4:56 PM 66.9 °F 38.8 °F 36% 29.78 in 10.0 mi South 19.6 mph 25.3 mph N/A   Clear
5:56 PM 66.9 °F 39.9 °F 37% 29.75 in 8.0 mi South 23.0 mph 31.1 mph N/A   Scattered Clouds
6:56 PM 64.9 °F 41.9 °F 43% 29.75 in 10.0 mi SSE 15.0 mph - 0.00 in   Overcast
7:56 PM 57.9 °F 50.0 °F 75% 29.82 in 10.0 mi SW 11.5 mph - 0.01 in   Overcast
8:56 PM 54.9 °F 52.0 °F 90% 29.81 in 6.0 mi SSE 8.1 mph - 0.02 in Rain Rain
9:46 PM 53.6 °F 53.6 °F 100% 29.83 in 5.0 mi SE 5.8 mph - 0.03 in Rain Light Rain
9:56 PM 54.0 °F 52.9 °F 96% 29.81 in 5.0 mi SE 6.9 mph - 0.04 in Rain Light Rain
10:56 PM 54.9 °F 54.0 °F 97% 29.77 in 5.0 mi SE 10.4 mph - 0.04 in Rain Rain
11:56 PM 54.9 °F 54.0 °F 97% 29.78 in 3.0 mi South 11.5 mph - 0.11 in Rain Heavy Rain
12:04 AM 55.4 °F 53.6 °F 94% 29.78 in 2.0 mi South 11.5 mph - 0.03 in Rain Heavy Rain
12:17 AM 55.4 °F 53.6 °F 94% 29.76 in 1.8 mi South 17.3 mph - 0.10 in Rain Heavy Rain
12:35 AM 55.4 °F 55.4 °F 100% 29.76 in 2.5 mi South 16.1 mph - 0.19 in Rain Rain
12:44 AM 55.4 °F 55.4 °F 100% 29.77 in 3.0 mi South 15.0 mph - 0.21 in Rain Rain
12:56 AM 54.9 °F 54.9 °F 100% 29.78 in 2.5 mi South 15.0 mph - 0.24 in Rain Rain